Flag for Guinea Weather past 2 weeks in Nzérékoré, Guinea

Now
79 °F

Thunderstorms. Overcast.


Feels Like: 82 °F
Forecast: 69 / 85 °F
Wind: 12 mph from East

Location: Roberts Field

Current Time: May 4, 2015 at 1:30:55 PM

Latest Report: May 4, 2015 at 1:00 PM


Visibility: N/A

Pressure: 29.95 "Hg

Humidity: 79%

Dew point: 72 °F

Location of NzérékoréLocation

Historic Weather in Nzérékoré — Graph

°F

Nzérékoré temperature yesterday

Maximum temperature yesterday: 90 °F (at 11:30 AM)
Minimum temperature yesterday: 77 °F (at 4:30 AM)
Average temperature yesterday: 83 °F

Past Weeks' High & Low Weather Summary

 TemperatureHumidityPressure
High93 °F (Apr 21, 1:30 PM)94% (Apr 19, 10:30 PM)29.95 "Hg (Apr 19, 10:30 PM)
Low73 °F (Apr 22, 5:30 AM)55% (Apr 24, 1:00 PM)29.77 "Hg (Apr 20, 4:30 PM)
Average83 °F83%29.86 "Hg
* Reported Apr 19 12:00 Noon — May 4 12:30 PM, Nzérékoré, Weather by CustomWeather, © 2015

Note: Actual official high and low records may vary slightly from our data, if they occured in-between our weather recording intervals... More about our weather records

Advertising

Nzérékoré weather history for previous 24 hours

 ConditionsComfort  
Time TempWeatherWind HumidityBarometerVisibility
12:30 PM
Mon, May 4
79 °FThunderstorms. Partly sunny.14 mph79%29.95 "HgN/A
12:00 PM81 °FThunderstorms. Partly sunny.16 mph79%29.92 "HgN/A
11:30 AM82 °FThunderstorms. Partly sunny.18 mph79%29.92 "HgN/A
11:00 AM84 °FPartly sunny.16 mph74%29.92 "HgN/A
10:30 AM84 °FPartly sunny.13 mph79%29.92 "HgN/A
10:00 AM84 °FPartly sunny.9 mph79%29.92 "HgN/A
9:30 AM84 °FPartly sunny.5 mph84%29.95 "HgN/A
9:00 AM81 °FScattered clouds.6 mph89%29.92 "HgN/A
8:30 AM81 °FScattered clouds.5 mph89%29.92 "HgN/A
8:00 AM79 °FScattered clouds.3 mph94%29.89 "HgN/A
7:30 AM79 °FScattered clouds.6 mph94%29.86 "HgN/A
7:00 AM79 °FPassing clouds.No wind94%29.83 "HgN/A
6:30 AM77 °FPassing clouds.No wind94%29.83 "HgN/A
6:00 AM77 °FThunderstorms. Passing clouds.No wind94%29.83 "HgN/A
5:30 AM77 °FThunderstorms. Passing clouds.No wind94%29.83 "HgN/A
5:00 AM79 °FThunderstorms. Passing clouds.No wind94%29.83 "HgN/A
4:30 AM79 °FThunderstorms. Passing clouds.No wind94%29.83 "HgN/A
3:30 AM79 °FThunderstorms. Passing clouds.6 mph94%29.86 "HgN/A
3:00 AM79 °FThunderstorms. Passing clouds.6 mph94%29.86 "HgN/A
2:30 AM79 °FThunderstorms. Passing clouds.No wind94%29.86 "HgN/A
1:30 AM79 °FPassing clouds.No wind94%29.89 "HgN/A
1:00 AM79 °FPassing clouds.No wind94%29.89 "HgN/A
12:30 AM79 °FPassing clouds.No wind94%29.89 "HgN/A
12:00 AM79 °FPassing clouds.No wind94%29.92 "HgN/A
11:30 PM
Sun, May 3
81 °FPassing clouds.No wind89%29.92 "HgN/A
11:00 PM81 °FPassing clouds.No wind94%29.92 "HgN/A
10:30 PM81 °FPassing clouds.No wind94%29.92 "HgN/A
10:00 PM81 °FPassing clouds.No wind94%29.89 "HgN/A
9:30 PM81 °FPassing clouds.No wind94%29.89 "HgN/A
8:30 PM81 °FPassing clouds.No wind94%29.86 "HgN/A
8:00 PM81 °FPassing clouds.3 mph94%29.86 "HgN/A
7:30 PM82 °FScattered clouds.3 mph84%29.83 "HgN/A
7:00 PM82 °FScattered clouds.3 mph84%29.83 "HgN/A
6:30 PM84 °FScattered clouds.3 mph79%29.83 "HgN/A
6:00 PM86 °FPassing clouds.8 mph75%29.80 "HgN/A
5:30 PM86 °FPassing clouds.10 mph75%29.80 "HgN/A
5:00 PM88 °FPassing clouds.9 mph66%29.80 "HgN/A
4:30 PM88 °FPassing clouds.14 mph66%29.80 "HgN/A
4:00 PM88 °FPassing clouds.8 mph66%29.80 "HgN/A
3:30 PM90 °FPassing clouds.14 mph63%29.80 "HgN/A
3:00 PM90 °FPassing clouds.9 mph63%29.83 "HgN/A
2:30 PM90 °FPassing clouds.13 mph67%29.83 "HgN/A
2:00 PM90 °FPartly sunny.14 mph67%29.83 "HgN/A
1:30 PM90 °FPartly sunny.12 mph67%29.83 "HgN/A
1:00 PM90 °FBroken clouds.9 mph67%29.86 "HgN/A
Weather by CustomWeather, © 2015

See weather overviewHow to use our weather pages